Spearfish, SD

9:51 AM MDT on October 18, 2017 (GMT -0600)
Black Hills-Ice

Weather History for KSPF - May, 2013

Change the Weather History Date:

Monday, May 20, 2013

  Actual Average (KEFC) Record (KEFC)
Temperature  
Mean Temperature 45 °F -  
Max Temperature 46 °F 71 °F 97 °F (1964)
Min Temperature 44 °F 43 °F 27 °F (1968)
Degree Days  
Heating Degree Days 20    
Moisture  
Dew Point 45 °F    
Average Humidity 98    
Maximum Humidity 100    
Minimum Humidity 93    
Precipitation  
Precipitation 4.09 in - - ()
Sea Level Pressure  
Sea Level Pressure 29.82 in    
Wind  
Wind Speed 21 mph (NW)    
Max Wind Speed 28 mph    
Max Gust Speed 40 mph    
Visibility 2 miles    
Events Fog , Rain    
Averages and records for this station are not official NWS values.
T = Trace of Precipitation, MM = Missing Value Source: NWS Daily Summary

Daily Weather History Graph

Daily Weather History Graph

Search for Another Location

Airport or City:

Trip Planner

Search our weather history database for the weather conditions in past years. The results will help you decide how hot, cold, wet, or windy it might be!

Date:

Astronomy

May. 20, 2013 Rise Set
Actual Time 6:22 AM CDT 9:21 PM CDT
Civil Twilight 5:47 AM CDT 9:56 PM CDT
Nautical Twilight 5:03 AM CDT 10:40 PM CDT
Astronomical Twilight 4:11 AM CDT 11:33 PM CDT
Moon 4:21 PM CDT (5/20) 3:30 AM CDT (5/20)
Length of Visible Light 16h 08m
Length of Day
14h 59m
Waxing Gibbous, 75% of the Moon is Illuminated
May 20
Waxing Gibbous
May 24
Full
May 31
Last Quarter
Jun 8
New
Jun 16
First Quarter

Hourly Weather History & Observations

Time (CDT) Temp. Windchill Dew Point Humidity Pressure Visibility Wind Dir Wind Speed Gust Speed Precip Events Conditions
12:15 AM 46.4 °F 39.0 °F 46.4 °F 100% 29.76 in 4.0 mi WNW 19.6 mph 31.1 mph 0.02 in Rain Light Rain
12:35 AM 46.4 °F 38.5 °F 46.4 °F 100% 29.75 in 5.0 mi WNW 21.9 mph 32.2 mph 0.02 in Rain Light Rain
12:55 AM 46.4 °F 38.1 °F 46.4 °F 100% 29.74 in 7.0 mi WNW 24.2 mph 34.5 mph 0.03 in Rain Light Rain
1:15 AM 46.4 °F 38.5 °F 46.4 °F 100% 29.74 in 4.0 mi NW 21.9 mph 32.2 mph 0.04 in Rain Rain
1:35 AM 46.4 °F 39.2 °F 46.4 °F 100% 29.74 in 3.0 mi NW 18.4 mph 33.4 mph 0.10 in Rain Light Rain
1:55 AM 46.4 °F 37.5 °F 46.4 °F 100% 29.75 in 4.0 mi NW 27.6 mph 38.0 mph 0.14 in   Partly Cloudy
2:15 AM 46.4 °F 38.7 °F 44.6 °F 93% 29.74 in 4.0 mi NW 20.7 mph 34.5 mph 0.04 in Rain Rain
2:35 AM 46.4 °F 38.3 °F 44.6 °F 93% 29.74 in 3.0 mi WNW 23.0 mph 32.2 mph 0.09 in Rain Rain
2:55 AM 46.4 °F 38.3 °F 44.6 °F 93% 29.73 in 2.5 mi WNW 23.0 mph 29.9 mph 0.30 in Rain Heavy Rain
3:15 AM 46.4 °F 38.1 °F 44.6 °F 93% 29.73 in 2.0 mi WNW 24.2 mph 33.4 mph 0.05 in Rain Heavy Rain
3:35 AM 46.4 °F 38.7 °F 44.6 °F 93% 29.73 in 2.0 mi WNW 20.7 mph 35.7 mph 0.07 in   Clear
3:55 AM 46.4 °F 37.7 °F 44.6 °F 93% 29.72 in 1.8 mi WNW 26.5 mph 33.4 mph 0.07 in   Clear
4:15 AM 46.4 °F 38.5 °F 44.6 °F 93% 29.72 in 3.0 mi WNW 21.9 mph 32.2 mph 0.03 in Rain Heavy Rain
4:35 AM 46.4 °F 38.3 °F 44.6 °F 93% 29.73 in 4.0 mi WNW 23.0 mph 36.8 mph 0.07 in Rain Rain
4:55 AM 46.4 °F 38.3 °F 44.6 °F 93% 29.73 in 2.5 mi WNW 23.0 mph 35.7 mph 0.08 in   Clear
5:15 AM 46.4 °F 37.5 °F 44.6 °F 93% 29.73 in 2.5 mi WNW 27.6 mph 38.0 mph N/A   Clear
5:35 AM 44.6 °F 36.1 °F 44.6 °F 100% 29.73 in 2.0 mi WNW 21.9 mph 35.7 mph 0.01 in   Clear
5:55 AM 44.6 °F 35.9 °F 44.6 °F 100% 29.73 in 2.0 mi WNW 23.0 mph 29.9 mph 0.01 in   Clear
6:15 AM 44.6 °F 36.1 °F 44.6 °F 100% 29.74 in 2.5 mi WNW 21.9 mph 35.7 mph 0.10 in Rain Light Rain
6:35 AM 44.6 °F 37.2 °F 44.6 °F 100% 29.74 in 1.2 mi WNW 17.3 mph 28.8 mph 0.27 in   Scattered Clouds
6:55 AM 44.6 °F 36.1 °F 44.6 °F 100% 29.74 in 2.0 mi NW 21.9 mph 39.1 mph 0.42 in   Clear
7:15 AM 44.6 °F 35.9 °F 44.6 °F 100% 29.75 in 3.0 mi NW 23.0 mph 26.5 mph 0.15 in Rain Heavy Rain
7:35 AM 44.6 °F 35.9 °F 44.6 °F 100% 29.76 in 1.8 mi NW 23.0 mph 40.3 mph 0.40 in Rain Light Rain
7:55 AM 44.6 °F 36.9 °F 44.6 °F 100% 29.76 in 2.0 mi NW 18.4 mph 29.9 mph 0.64 in   Clear
8:15 AM 44.6 °F 35.3 °F 44.6 °F 100% 29.76 in 2.5 mi NW 26.5 mph 34.5 mph 0.13 in   Clear
8:35 AM 44.6 °F 35.9 °F 44.6 °F 100% 29.77 in 1.5 mi NW 23.0 mph 34.5 mph 0.27 in   Clear
8:55 AM 44.6 °F 36.1 °F 44.6 °F 100% 29.78 in 1.0 mi NW 21.9 mph 33.4 mph 0.37 in   Unknown
9:15 AM 44.6 °F 36.4 °F 44.6 °F 100% 29.78 in 0.8 mi NW 20.7 mph 36.8 mph 0.11 in   Unknown
9:35 AM 44.6 °F 36.4 °F 44.6 °F 100% 29.79 in 0.5 mi NW 20.7 mph 33.4 mph 0.27 in   Mostly Cloudy
9:55 AM 44.6 °F 36.4 °F 44.6 °F 100% 29.79 in 0.8 mi NW 20.7 mph 31.1 mph 0.42 in   Mostly Cloudy
10:15 AM 44.6 °F 35.9 °F 44.6 °F 100% 29.80 in 0.8 mi NW 23.0 mph 33.4 mph 0.09 in   Unknown
10:35 AM 44.6 °F 35.9 °F 44.6 °F 100% 29.80 in 0.5 mi NW 23.0 mph 32.2 mph 0.25 in   Unknown
10:55 AM 44.6 °F 36.4 °F 44.6 °F 100% 29.81 in 0.8 mi NW 20.7 mph 26.5 mph 0.40 in   Mostly Cloudy
11:15 AM 44.6 °F 36.1 °F 44.6 °F 100% 29.81 in 0.8 mi NW 21.9 mph 29.9 mph 0.14 in   Mostly Cloudy
11:35 AM 44.6 °F 37.2 °F 44.6 °F 100% 29.82 in 2.0 mi NW 17.3 mph 29.9 mph 0.28 in Rain Light Rain
11:55 AM 44.6 °F 36.4 °F 44.6 °F 100% 29.83 in 0.8 mi WNW 20.7 mph 32.2 mph 0.29 in   Mist
12:15 PM 44.6 °F 36.6 °F 44.6 °F 100% 29.83 in 0.5 mi NW 19.6 mph 32.2 mph N/A Fog Fog
12:35 PM 44.6 °F 36.4 °F 44.6 °F 100% 29.84 in 0.8 mi NW 20.7 mph 31.1 mph N/A   Mist
1:35 PM 44.6 °F 36.6 °F 44.6 °F 100% 29.84 in 0.8 mi WNW 19.6 mph 26.5 mph N/A   Mist
1:55 PM 44.6 °F 36.9 °F 44.6 °F 100% 29.85 in 0.5 mi NW 18.4 mph 31.1 mph N/A Fog Fog
2:15 PM 46.4 °F 38.5 °F 46.4 °F 100% 29.85 in 1.0 mi WNW 21.9 mph 31.1 mph 0.05 in Rain Heavy Rain
2:35 PM 46.4 °F 39.0 °F 46.4 °F 100% 29.85 in 0.8 mi WNW 19.6 mph 31.1 mph 0.07 in   Mist
2:55 PM 46.4 °F 38.7 °F 46.4 °F 100% 29.85 in 0.8 mi WNW 20.7 mph 34.5 mph 0.08 in   Mist
3:15 PM 46.4 °F 38.5 °F 46.4 °F 100% 29.86 in 0.8 mi WNW 21.9 mph 28.8 mph N/A   Mist
3:35 PM 46.4 °F 39.0 °F 46.4 °F 100% 29.86 in 1.2 mi WNW 19.6 mph 27.6 mph N/A   Clear
3:55 PM 46.4 °F 38.7 °F 46.4 °F 100% 29.86 in 1.2 mi WNW 20.7 mph 31.1 mph 0.02 in Rain Rain
4:15 PM 46.4 °F 38.3 °F 44.6 °F 93% 29.87 in 1.2 mi NW 23.0 mph 32.2 mph N/A   Clear
4:35 PM 46.4 °F 38.7 °F 46.4 °F 100% 29.87 in 0.8 mi WNW 20.7 mph 28.8 mph N/A   Mist
4:55 PM 46.4 °F 39.0 °F 46.4 °F 100% 29.87 in 0.8 mi WNW 19.6 mph 32.2 mph N/A   Mist
5:15 PM 46.4 °F 38.5 °F 46.4 °F 100% 29.87 in 0.8 mi NW 21.9 mph 31.1 mph N/A   Mist
5:35 PM 46.4 °F 37.7 °F 46.4 °F 100% 29.87 in 6.0 mi WNW 26.5 mph 32.2 mph N/A Rain Light Rain
5:55 PM 46.4 °F 40.1 °F 46.4 °F 100% 29.88 in 2.0 mi NW 15.0 mph 28.8 mph 0.05 in Rain Rain
6:15 PM 46.4 °F 39.8 °F 44.6 °F 93% 29.88 in 2.0 mi NW 16.1 mph 32.2 mph 0.01 in   Clear
6:35 PM 46.4 °F 39.0 °F 44.6 °F 93% 29.88 in 1.5 mi NW 19.6 mph 27.6 mph 0.02 in   Clear
6:55 PM 46.4 °F 39.2 °F 44.6 °F 93% 29.88 in 1.0 mi NW 18.4 mph 26.5 mph 0.03 in   Clear
7:15 PM 46.4 °F 39.5 °F 46.4 °F 100% 29.88 in 5.0 mi NW 17.3 mph 26.5 mph 0.01 in Rain Light Rain
7:35 PM 46.4 °F 39.2 °F 46.4 °F 100% 29.89 in 5.0 mi WNW 18.4 mph 27.6 mph 0.06 in Rain Rain
7:55 PM 46.4 °F 39.2 °F 46.4 °F 100% 29.89 in 4.0 mi NW 18.4 mph 28.8 mph 0.13 in Rain Rain
8:15 PM 46.4 °F 39.2 °F 44.6 °F 93% 29.90 in 1.8 mi NNW 18.4 mph 26.5 mph 0.06 in Rain Light Rain
8:35 PM 46.4 °F 39.8 °F 44.6 °F 93% 29.91 in 7.0 mi NW 16.1 mph 25.3 mph 0.11 in Rain Light Rain
8:55 PM 44.6 °F 36.9 °F 44.6 °F 100% 29.92 in 1.8 mi North 18.4 mph 35.7 mph 0.13 in   Clear
9:15 PM 44.6 °F 35.9 °F 44.6 °F 100% 29.92 in 5.0 mi NW 23.0 mph 33.4 mph 0.02 in   Clear
9:35 PM 44.6 °F 37.4 °F 44.6 °F 100% 29.93 in 5.0 mi NNW 16.1 mph 27.6 mph 0.07 in Rain Rain
9:55 PM 44.6 °F 37.4 °F 44.6 °F 100% 29.94 in 4.0 mi NW 16.1 mph 21.9 mph 0.12 in Rain Rain
10:15 PM 44.6 °F 36.1 °F 44.6 °F 100% 29.95 in 3.0 mi NNW 21.9 mph 34.5 mph 0.04 in   Clear
10:35 PM 44.6 °F 36.9 °F 42.8 °F 93% 29.96 in 5.0 mi NNW 18.4 mph 27.6 mph 0.13 in Rain Light Rain
11:15 PM 44.6 °F 38.1 °F 44.6 °F 100% 29.96 in 5.0 mi NW 13.8 mph 24.2 mph 0.04 in Rain Rain
11:35 PM 44.6 °F 37.4 °F 44.6 °F 100% 29.96 in 3.0 mi NW 16.1 mph 24.2 mph 0.11 in Rain Rain
11:55 PM 44.6 °F 36.6 °F 44.6 °F 100% 29.97 in 3.0 mi NW 19.6 mph 25.3 mph 0.23 in   Mostly Cloudy